Ely, MN

8:07 AM CST on February 25, 2018 (GMT -0600)
Ely Municipal

Weather History for KELO - January, 2012

Change the Weather History Date:

Tuesday, January 10, 2012

  Actual Average Record
Temperature  
Mean Temperature 32 °F -  
Max Temperature 41 °F 14 °F 44 °F (2013)
Min Temperature 24 °F 0 °F -23 °F (2009)
Degree Days  
Heating Degree Days 32    
Moisture  
Dew Point 26 °F    
Average Humidity 80    
Maximum Humidity 93    
Minimum Humidity 61    
Precipitation  
Precipitation 0.00 in - - ()
Sea Level Pressure  
Sea Level Pressure 29.70 in    
Wind  
Wind Speed 3 mph (SW)    
Max Wind Speed 14 mph    
Max Gust Speed 20 mph    
Visibility 10 miles    
Events      
Averages and records for this station are not official NWS values.
T = Trace of Precipitation, MM = Missing Value Source: NWS Daily Summary

Daily Weather History Graph

Daily Weather History Graph

Search for Another Location

Airport or City:

Trip Planner

Search our weather history database for the weather conditions in past years. The results will help you decide how hot, cold, wet, or windy it might be!

Date:

Astronomy

Jan. 10, 2012 Rise Set
Actual Time 7:54 AM CST 4:35 PM CST
Civil Twilight 7:19 AM CST 5:10 PM CST
Nautical Twilight 6:40 AM CST 5:49 PM CST
Astronomical Twilight 6:03 AM CST 6:26 PM CST
Moon 6:37 PM CST (1/10) 8:24 AM CST (1/10)
Length of Visible Light 9h 51m
Length of Day
8h 40m
Full, 98% of the Moon is Illuminated
Jan 10
Full
Jan 16
Last Quarter
Jan 23
New
Jan 30
First Quarter
Feb 7
Full

Hourly Weather History & Observations

Time (CST) Temp. Windchill Dew Point Humidity Pressure Visibility Wind Dir Wind Speed Gust Speed Precip Events Conditions
12:13 AM 26.6 °F - 24.8 °F 93% 29.85 in 10.0 mi Calm Calm - N/A   Clear
12:32 AM 24.8 °F - 23.0 °F 93% 29.85 in 10.0 mi Calm Calm - N/A   Clear
12:53 AM 24.8 °F - 23.0 °F 93% 29.86 in 10.0 mi Calm Calm - N/A   Clear
1:13 AM 24.8 °F - 23.0 °F 93% 29.85 in 10.0 mi Calm Calm - N/A   Clear
1:33 AM 24.8 °F - 23.0 °F 93% 29.86 in 10.0 mi Calm Calm - N/A   Clear
1:52 AM 24.8 °F - 23.0 °F 93% 29.85 in 10.0 mi Calm Calm - N/A   Clear
2:13 AM 26.6 °F 21.2 °F 24.8 °F 93% 29.83 in 10.0 mi South 4.6 mph - N/A   Clear
2:32 AM 26.6 °F - 24.8 °F 93% 29.84 in 10.0 mi Calm Calm - N/A   Clear
2:53 AM 26.6 °F - 24.8 °F 93% 29.83 in 10.0 mi Calm Calm - N/A   Clear
3:13 AM 24.8 °F 19.1 °F 23.0 °F 93% 29.82 in 10.0 mi SE 4.6 mph - N/A   Clear
3:32 AM 26.6 °F 22.6 °F 24.8 °F 93% 29.81 in 10.0 mi SSE 3.5 mph - N/A   Mostly Cloudy
3:53 AM 26.6 °F 22.6 °F 24.8 °F 93% 29.80 in 10.0 mi SE 3.5 mph - N/A   Overcast
4:13 AM 26.6 °F - 24.8 °F 93% 29.80 in 10.0 mi Calm Calm - N/A   Overcast
4:32 AM 26.6 °F 22.6 °F 24.8 °F 93% 29.78 in 10.0 mi South 3.5 mph - N/A   Overcast
4:53 AM 26.6 °F - 24.8 °F 93% 29.78 in 10.0 mi Calm Calm - N/A   Scattered Clouds
5:13 AM 26.6 °F 21.2 °F 24.8 °F 93% 29.76 in 10.0 mi ESE 4.6 mph - N/A   Clear
5:32 AM 26.6 °F 22.6 °F 23.0 °F 86% 29.74 in 10.0 mi SE 3.5 mph - N/A   Clear
5:53 AM 26.6 °F - 24.8 °F 93% 29.72 in 10.0 mi Calm Calm - N/A   Mostly Cloudy
6:13 AM 26.6 °F - 24.8 °F 93% 29.73 in 10.0 mi Calm Calm - N/A   Scattered Clouds
6:32 AM 26.6 °F 22.6 °F 24.8 °F 93% 29.73 in 10.0 mi South 3.5 mph - N/A   Clear
6:53 AM 28.4 °F 22.2 °F 24.8 °F 86% 29.73 in 10.0 mi South 5.8 mph - N/A   Clear
7:12 AM 28.4 °F 23.3 °F 24.8 °F 86% 29.72 in 10.0 mi South 4.6 mph - N/A   Clear
7:32 AM 28.4 °F 21.2 °F 24.8 °F 86% 29.70 in 10.0 mi South 6.9 mph - N/A   Clear
7:53 AM 30.2 °F 22.6 °F 26.6 °F 86% 29.69 in 10.0 mi South 8.1 mph - N/A   Clear
8:13 AM 30.2 °F 25.4 °F 26.6 °F 86% 29.69 in 10.0 mi SSW 4.6 mph - N/A   Clear
8:33 AM 30.2 °F 24.3 °F 26.6 °F 86% 29.68 in 10.0 mi South 5.8 mph - N/A   Clear
8:53 AM 32.0 °F 24.8 °F 26.6 °F 80% 29.67 in 10.0 mi SSW 8.1 mph - N/A   Clear
9:12 AM 33.8 °F 27.0 °F 26.6 °F 75% 29.66 in 10.0 mi SSW 8.1 mph - N/A   Scattered Clouds
9:33 AM 33.8 °F 25.8 °F 26.6 °F 75% 29.65 in 10.0 mi SSW 10.4 mph - N/A   Clear
9:52 AM 35.6 °F 29.2 °F 26.6 °F 70% 29.64 in 10.0 mi SSW 8.1 mph 19.6 mph N/A   Clear
10:13 AM 35.6 °F 26.6 °F 26.6 °F 70% 29.64 in 10.0 mi SSW 13.8 mph 19.6 mph N/A   Scattered Clouds
10:33 AM 35.6 °F 29.2 °F 26.6 °F 70% 29.64 in 10.0 mi SW 8.1 mph 18.4 mph N/A   Scattered Clouds
10:52 AM 37.4 °F 30.3 °F 26.6 °F 65% 29.64 in 10.0 mi SW 10.4 mph - N/A   Scattered Clouds
11:12 AM 37.4 °F 30.8 °F 28.4 °F 70% 29.63 in 10.0 mi SW 9.2 mph - N/A   Scattered Clouds
11:33 AM 37.4 °F 32.8 °F 26.6 °F 65% 29.63 in 10.0 mi WSW 5.8 mph - N/A   Scattered Clouds
11:52 AM 37.4 °F 32.8 °F 26.6 °F 65% 29.63 in 10.0 mi WSW 5.8 mph - N/A   Clear
12:13 PM 39.2 °F 34.2 °F 28.4 °F 65% 29.63 in 10.0 mi WSW 6.9 mph - N/A   Clear
12:33 PM 39.2 °F 32.0 °F 28.4 °F 65% 29.62 in 10.0 mi West 11.5 mph - N/A   Clear
12:52 PM 39.2 °F 33.0 °F 28.4 °F 65% 29.62 in 10.0 mi West 9.2 mph 16.1 mph N/A   Clear
1:13 PM 39.2 °F 33.0 °F 28.4 °F 65% 29.62 in 10.0 mi West 9.2 mph 16.1 mph N/A   Clear
1:33 PM 41.0 °F 35.8 °F 28.4 °F 61% 29.62 in 10.0 mi West 8.1 mph 16.1 mph N/A   Clear
1:52 PM 41.0 °F 35.8 °F 28.4 °F 61% 29.61 in 10.0 mi West 8.1 mph - N/A   Clear
2:13 PM 39.2 °F 35.0 °F 28.4 °F 65% 29.62 in 10.0 mi West 5.8 mph - N/A   Clear
2:33 PM 39.2 °F 33.0 °F 28.4 °F 65% 29.61 in 10.0 mi West 9.2 mph - N/A   Clear
2:52 PM 39.2 °F 35.9 °F 28.4 °F 65% 29.61 in 10.0 mi West 4.6 mph - N/A   Clear
3:13 PM 39.2 °F 34.2 °F 28.4 °F 65% 29.61 in 10.0 mi West 6.9 mph - N/A   Scattered Clouds
3:32 PM 39.2 °F 35.9 °F 28.4 °F 65% 29.61 in 10.0 mi WSW 4.6 mph - N/A   Scattered Clouds
3:53 PM 39.2 °F 37.0 °F 28.4 °F 65% 29.62 in 10.0 mi WSW 3.5 mph - N/A   Clear
4:13 PM 39.2 °F - 28.4 °F 65% 29.62 in 10.0 mi Calm Calm - N/A   Clear
4:33 PM 37.4 °F - 28.4 °F 70% 29.62 in 10.0 mi Calm Calm - N/A   Clear
4:52 PM 37.4 °F - 28.4 °F 70% 29.63 in 10.0 mi Calm Calm - N/A   Clear
5:13 PM 35.6 °F 32.8 °F 28.4 °F 75% 29.63 in 10.0 mi WSW 3.5 mph - N/A   Clear
5:33 PM 35.6 °F 32.8 °F 28.4 °F 75% 29.64 in 10.0 mi WSW 3.5 mph - N/A   Clear
5:53 PM 30.2 °F - 26.6 °F 86% 29.64 in 10.0 mi Calm Calm - N/A   Clear
6:12 PM 30.2 °F - 26.6 °F 86% 29.64 in 10.0 mi Calm Calm - N/A   Clear
6:33 PM 28.4 °F - 24.8 °F 86% 29.65 in 10.0 mi Calm Calm - N/A   Clear
6:52 PM 28.4 °F - 24.8 °F 86% 29.64 in 10.0 mi Calm Calm - N/A   Clear
7:13 PM 28.4 °F - 24.8 °F 86% 29.64 in 10.0 mi Calm Calm - N/A   Scattered Clouds
7:33 PM 28.4 °F - 24.8 °F 86% 29.64 in 10.0 mi Calm Calm - N/A   Clear
7:52 PM 26.6 °F - 24.8 °F 93% 29.64 in 10.0 mi Calm Calm - N/A   Clear
8:13 PM 28.4 °F - 24.8 °F 86% 29.64 in 10.0 mi Calm Calm - N/A   Scattered Clouds
8:32 PM 28.4 °F - 24.8 °F 86% 29.63 in 10.0 mi Calm Calm - N/A   Overcast
8:53 PM 28.4 °F - 26.6 °F 93% 29.62 in 10.0 mi Calm Calm - N/A   Scattered Clouds
9:13 PM 28.4 °F - 26.6 °F 93% 29.63 in 10.0 mi Calm Calm - N/A   Clear
9:32 PM 28.4 °F - 26.6 °F 93% 29.63 in 10.0 mi Calm Calm - N/A   Clear
9:53 PM 28.4 °F - 26.6 °F 93% 29.63 in 10.0 mi Calm Calm - N/A   Clear
10:13 PM 28.4 °F - 26.6 °F 93% 29.63 in 10.0 mi Calm Calm - N/A   Clear
10:32 PM 28.4 °F - 26.6 °F 93% 29.63 in 10.0 mi Calm Calm - N/A   Clear
10:53 PM 28.4 °F - 26.6 °F 93% 29.61 in 10.0 mi Calm Calm - N/A   Clear
11:12 PM 28.4 °F - 26.6 °F 93% 29.61 in 10.0 mi Calm Calm - N/A   Clear
11:32 PM 28.4 °F - 26.6 °F 93% 29.61 in 10.0 mi Calm Calm - N/A   Clear
11:53 PM 28.4 °F - 26.6 °F 93% 29.60 in 10.0 mi Calm Calm - N/A   Clear